Regional Weather Roundup
Issued by NWS

Home | Current Version | Previous Version | Text Only | Print | Product List | Glossary Off
Versions: 1 2 3 4 5 6 7 8 9 10 11 12 13 14 15 16 17 18 19 20 21 22 23 24 25 26 27 28 29 30 31 32 33 34 35 36 37 38 39 40 41 42 43 44 45 46 47 48 49 50

219
ASUS43 KLMK 271302
RWRKY
KENTUCKY REGIONAL WEATHER ROUNDUP
NATIONAL WEATHER SERVICE LOUISVILLE KY
900 AM EDT THU JUL 27 2017

NOTE "FAIR" INDICATES FEW OR NO CLOUDS BELOW 12,000 FEET
WITH NO SIGNIFICANT WEATHER AND/OR OBSTRUCTIONS TO VISIBILITY.

KYZ001>023-026-027-061>063-070>075-271400-
WESTERN AND SOUTH CENTRAL KENTUCKY

CITY           SKY/WX    TMP DP  RH WIND       PRES   REMARKS
PADUCAH        CLOUDY    80  73  79 SW6       29.97S
HENDERSON      CLOUDY    77  75  93 CALM      29.97F
OWENSBORO      CLOUDY    77  75  93 S5        29.97S
HOPKINSVILLE   MOSUNNY   81  74  79 SW13      30.01R
BOWLING GREEN  CLOUDY    82  76  81 W7        30.01S
GLASGOW        NOT AVBL
$$

KYZ024-025-028>034-038-045-046-053-271400-
NORTH CENTRAL KENTUCKY

CITY           SKY/WX    TMP DP  RH WIND       PRES   REMARKS
LOUISVILLE/SDF CLOUDY    81  75  82 W3        29.97R
LOUISVILLE/LOU CLOUDY    80  77  90 VRB3      29.98R
FORT KNOX      CLOUDY    79  73  84 SW6       29.97S
$$

KYZ035>037-039>044-047>052-055>060-089>105-271400-
NORTHEAST KENTUCKY

CITY           SKY/WX    TMP DP  RH WIND       PRES   REMARKS
LEXINGTON      LGT RAIN  78  73  84 SW3       30.01R
COVINGTON      CLOUDY    75  75 100 CALM      29.98S
FRANKFORT      CLOUDY    78  73  84 SW3       29.98R
$$

KYZ054-064>069-076>088-106>120-271400-
SOUTHEAST KENTUCKY

CITY           SKY/WX    TMP DP  RH WIND       PRES   REMARKS
JACKSON        LGT RAIN  72  71  97 CALM      30.05F VSB 1/2
LONDON         PTSUNNY   77  71  82 SW5       30.05R
SOMERSET       CLOUDY    75  73  94 CALM      30.05R
MIDDLESBORO    CLOUDY    73  72  96 CALM      30.07S
MONTICELLO     PTSUNNY   80  75  84 NW9       30.06R
$$





USA.gov is the U.S. government's official web portal to all federal, state and local government web resources and services.